Tracking 33181 objects as of 19-Feb-2026
HD Live streaming from Space Station
objects crossing your sky now

SL-14 DEB

Track SL-14 DEB now!
10-day predictions


NORAD ID: 45297
Int'l Code: 1991-056AK
Perigee: 1,094.8 km
Apogee: 1,286.2 km
Inclination: 82.6 °
Period: 109.1 minutes
Semi major axis: 7561 km
RCS: Unknown
Launch date: August 15, 1991
Source: Commonwealth of Independent States (former USSR) (CIS)
Launch site: PLESETSK MISSILE AND SPACE COMPLEX (PKMTR)

Note: This is SATELLITE DEBRIS
Your satellite tracking list
Your tracking list is empty




NASA's NSSDC Master Catalog

Two Line Element Set (TLE):
1 45297U 91056AK  26049.56489267  .00006360  00000-0  15057-1 0  9990
2 45297  82.6078 257.4916 0126607 307.8382  51.1338 13.20353920287070
Source of the keplerian elements: AFSPC